BIEGBIAR

Guest
Details From BIEG - Egilsstadir
To BIAR - Akureyri
Flight Number -
Tags generated
Created
Modified
Stats Distance 94 nm / 175 km
Max Altitude 7,000 ft / 2,134 m
Waypoints 3
Social Downloads 5
Likes 0
Share VATSIM

Download

Looking for another format? Having issues loading an existing format? Contact us
Advertisement - Login to hide

Notes

Basic altitude profile: - Ascent Rate: 2500ft/min - Ascent Speed: 250kts - Cruise Altitude: 35000ft - Cruise Speed: 420kts - Descent Rate: 1500ft/min - Descent Speed: 250kts Options: - Use NATs: yes - Use PACOTS: yes - Use low airways: yes - Use high airways: yes

Route

BIEG FELLI BIAR

ID Type Via Altitude Latitude Longitude Leg Dist Tot Dist Heading (true) Name
O BIEG APT - 0 ft / 0 m 65.28283˚ -14.40206˚ - 0 nm - Egilsstadir
FELLI FIX - 7,000 ft / 2,134 m 65.35417˚ -15.17389˚ 19 nm 19 nm 283° / 282° -
O BIAR APT - 0 ft / 0 m 65.65657˚ -18.07197˚ 74 nm 94 nm 285° / 283° Akureyri

Altitude Profile

Advertisement - Login to hide

BIEG

Details ICAO BIEG (EGS)
Name Egilsstadir
Region Iceland
Timezone Atlantic/Reykjavik (UTC+0.0)
Stats Elevation 76 ft / 23 m (AMSL)
Location 65.282830° -14.402058°
Runways 1
Magnetic Variation 10.004° W

METAR

BIEG 201300Z 20032G44KT 9999 FEW040 09/M04 Q0991

Decode

TAF

TAF BIEG 200753Z 2009/2109 22022G32KT CAVOK TX08/2015Z TN04/2106Z BECMG 2023/2102 24018KT BECMG 2104/2106 27008KT

Decode

Departure Runways

ID Width Length Bearing (true) Bearing (mag) Surface Threshold Offset Overrun Length
04 148 ft / 45 m 6,569 ft / 2,002 m 25.32° 35.32° Asphalt 492 ft / 150 m 0 ft / 0 m
22 148 ft / 45 m 6,569 ft / 2,002 m 205.34° 215.34° Asphalt 0 ft / 0 m 197 ft / 60 m

BIAR

Details ICAO BIAR (AEY)
Name Akureyri
Region Iceland
Timezone Unknown (UTC+0.0)
Stats Elevation 5 ft / 2 m (AMSL)
Location 65.656574° -18.071975°
Runways 1
Magnetic Variation 12.179° W

METAR

BIAR 201300Z 19024G36KT 9999 FEW025 BKN033 OVC045 08/01 Q0985

Decode

TAF

TAF BIAR 200753Z 2009/2109 21022G35KT 9999 FEW032 BKN060 TX08/2015Z TN03/2105Z TEMPO 2009/2020 22035G48KT BECMG 2022/2024 24012KT BECMG 2104/2106 32005KT

Decode

Destination Runways

ID Width Length Bearing (true) Bearing (mag) Surface Threshold Offset Overrun Length
01 148 ft / 45 m 7,855 ft / 2,394 m 355.54° 7.72° Asphalt 0 ft / 0 m 0 ft / 0 m
19 148 ft / 45 m 7,855 ft / 2,394 m 175.54° 187.72° Asphalt 0 ft / 0 m 0 ft / 0 m

Approach Navaids

Runway Type Ident Frequency Range Bearing (true) Bearing (mag) Slope Elevation
01 Localiser IEY 111.90 MHz 18 nm / 33 km 24.00° 36.18° - 200 ft / 61 m (AMSL)
01 Glidescope IEY 111.90 MHz 10 nm / 19 km 358.14° 10.32° 5.00° 44 ft / 13 m (AMSL)